Time,TemperatureF,DewpointF,PressureIn,WindDirection,WindDirectionDegrees,WindSpeedMPH,WindSpeedGustMPH,Humidity,HourlyPrecipIn,Conditions,Clouds,dailyrainin,SoftwareType,DateUTC
2013-08-14 00:00:00,62.6,61.1,29.66,SSW,212,0.0,0.0,95,0.00,RA,,0.00,WeatherDisplay:10.37,2013-08-14 04:00:00,
2013-08-14 00:05:00,62.5,61.0,29.66,SSW,212,0.0,0.0,95,0.00,RA,,0.00,WeatherDisplay:10.37,2013-08-14 04:05:00,
2013-08-14 00:10:00,62.4,61.0,29.66,SSW,212,0.0,0.0,95,0.00,FEW,,0.00,WeatherDisplay:10.37,2013-08-14 04:10:00,
2013-08-14 00:15:00,62.4,60.9,29.66,SSW,212,0.0,0.0,95,0.00,FEW,,0.00,WeatherDisplay:10.37,2013-08-14 04:15:00,
2013-08-14 00:20:00,62.3,60.8,29.66,SSW,212,0.0,0.0,95,0.00,FEW,,0.00,WeatherDisplay:10.37,2013-08-14 04:20:00,
2013-08-14 00:25:00,62.2,60.8,29.66,SSW,212,0.0,0.0,95,0.00,FEW,,0.00,WeatherDisplay:10.37,2013-08-14 04:25:00,
2013-08-14 00:30:00,62.2,60.8,29.66,SSW,212,0.0,0.0,95,0.00,FEW,,0.00,WeatherDisplay:10.37,2013-08-14 04:30:00,
2013-08-14 00:35:00,62.1,60.7,29.66,SSW,212,0.0,0.0,95,0.00,FEW,,0.00,WeatherDisplay:10.37,2013-08-14 04:35:00,
2013-08-14 00:40:00,62.1,60.7,29.66,SSW,212,0.0,0.0,95,0.00,FEW,,0.00,WeatherDisplay:10.37,2013-08-14 04:40:00,
2013-08-14 00:45:00,62.2,60.8,29.66,SSW,212,0.0,0.0,95,0.00,FEW,,0.00,WeatherDisplay:10.37,2013-08-14 04:45:00,
2013-08-14 00:50:00,62.2,60.8,29.66,SSW,212,0.0,0.0,95,0.00,FEW,,0.00,WeatherDisplay:10.37,2013-08-14 04:50:00,
2013-08-14 00:55:00,62.3,61.1,29.66,SSW,212,0.0,0.0,96,0.00,FEW,,0.00,WeatherDisplay:10.37,2013-08-14 04:55:00,
2013-08-14 01:00:00,62.4,61.2,29.66,SSW,212,0.0,0.0,96,0.00,FEW,,0.00,WeatherDisplay:10.37,2013-08-14 05:00:00,
2013-08-14 01:05:00,62.4,61.2,29.66,SSW,212,0.0,0.0,96,0.00,BKN,,0.00,WeatherDisplay:10.37,2013-08-14 05:05:00,
2013-08-14 01:10:00,62.5,61.3,29.66,SSW,212,0.0,0.0,96,0.00,BKN,,0.00,WeatherDisplay:10.37,2013-08-14 05:10:00,
2013-08-14 01:15:00,62.6,61.5,29.65,SSW,212,0.0,0.0,96,0.00,BKN,,0.00,WeatherDisplay:10.37,2013-08-14 05:15:00,
2013-08-14 01:20:00,62.7,61.5,29.65,SSW,212,0.0,0.0,96,0.00,BKN,,0.00,WeatherDisplay:10.37,2013-08-14 05:20:00,
2013-08-14 01:25:00,62.7,61.5,29.65,SSW,212,0.0,0.0,96,0.00,BKN,,0.00,WeatherDisplay:10.37,2013-08-14 05:25:00,
2013-08-14 01:30:00,62.7,61.2,29.65,SSW,212,0.0,0.0,95,0.00,BKN,,0.00,WeatherDisplay:10.37,2013-08-14 05:30:00,
2013-08-14 01:35:00,62.7,61.2,29.66,SSW,212,0.0,0.0,95,0.00,BKN,,0.00,WeatherDisplay:10.37,2013-08-14 05:35:00,
2013-08-14 01:40:00,62.6,61.1,29.66,SSW,212,0.0,0.0,95,0.00,BKN,,0.00,WeatherDisplay:10.37,2013-08-14 05:40:00,
2013-08-14 01:45:00,62.6,61.4,29.66,SSW,212,0.0,0.0,96,0.00,BKN,,0.00,WeatherDisplay:10.37,2013-08-14 05:45:00,
2013-08-14 01:50:00,62.5,61.4,29.65,SSW,212,0.0,0.0,96,0.00,BKN,,0.00,WeatherDisplay:10.37,2013-08-14 05:50:00,
2013-08-14 01:55:00,62.5,61.3,29.65,SSW,212,0.0,0.0,96,0.00,BKN,,0.00,WeatherDisplay:10.37,2013-08-14 05:55:00,
2013-08-14 02:00:00,62.5,61.3,29.65,SSW,212,0.0,0.0,96,0.00,BKN,,0.00,WeatherDisplay:10.37,2013-08-14 06:00:00,
2013-08-14 02:05:00,62.4,61.2,29.65,SSW,212,0.0,0.0,96,0.00,BKN,,0.00,WeatherDisplay:10.37,2013-08-14 06:05:00,
2013-08-14 02:10:00,62.4,61.2,29.65,SSW,212,0.0,0.0,96,0.00,BKN,,0.00,WeatherDisplay:10.37,2013-08-14 06:10:00,
2013-08-14 02:15:00,62.3,61.1,29.64,SSW,212,0.0,0.0,96,0.00,BKN,,0.00,WeatherDisplay:10.37,2013-08-14 06:15:00,
2013-08-14 02:20:00,62.2,60.8,29.64,SSW,212,0.0,0.0,95,0.00,BKN,,0.00,WeatherDisplay:10.37,2013-08-14 06:20:00,
2013-08-14 02:25:00,62.1,60.7,29.64,SSW,212,0.0,0.0,95,0.00,BKN,,0.00,WeatherDisplay:10.37,2013-08-14 06:25:00,
2013-08-14 02:30:00,62.1,60.7,29.65,SSW,212,0.0,0.0,95,0.00,BKN,,0.00,WeatherDisplay:10.37,2013-08-14 06:30:00,
2013-08-14 02:35:00,62.1,60.6,29.65,SSW,212,0.0,0.0,95,0.00,BKN,,0.00,WeatherDisplay:10.37,2013-08-14 06:35:00,
2013-08-14 02:40:00,62.0,60.6,29.64,SSW,212,0.0,0.0,95,0.00,BKN,,0.00,WeatherDisplay:10.37,2013-08-14 06:40:00,
2013-08-14 02:45:00,61.9,60.7,29.64,SSW,212,0.0,0.0,96,0.00,BKN,,0.00,WeatherDisplay:10.37,2013-08-14 06:45:00,
2013-08-14 02:50:00,61.8,60.7,29.64,SSW,212,0.0,0.0,96,0.00,BKN,,0.00,WeatherDisplay:10.37,2013-08-14 06:50:00,
2013-08-14 02:55:00,61.8,60.6,29.65,SSW,212,0.0,0.0,96,0.00,BKN,,0.00,WeatherDisplay:10.37,2013-08-14 06:55:00,
2013-08-14 03:00:00,61.7,60.5,29.65,SSW,212,0.0,0.0,96,0.00,BKN,,0.00,WeatherDisplay:10.37,2013-08-14 07:00:00,
2013-08-14 03:05:00,61.7,60.5,29.65,SSW,212,0.0,0.0,96,0.00,OVC,,0.00,WeatherDisplay:10.37,2013-08-14 07:05:00,
2013-08-14 03:15:00,61.6,60.4,29.65,SSW,212,0.0,0.0,96,0.00,OVC,,0.00,WeatherDisplay:10.37,2013-08-14 07:15:00,
2013-08-14 03:20:00,61.6,60.4,29.65,SSW,212,0.0,0.0,96,0.00,OVC,,0.00,WeatherDisplay:10.37,2013-08-14 07:20:00,
2013-08-14 03:25:00,61.6,60.5,29.65,SSW,212,0.0,0.0,96,0.00,OVC,,0.00,WeatherDisplay:10.37,2013-08-14 07:25:00,
2013-08-14 03:30:00,61.7,60.5,29.65,SSW,212,0.0,0.0,96,0.00,OVC,,0.00,WeatherDisplay:10.37,2013-08-14 07:30:00,
2013-08-14 03:35:00,61.7,60.5,29.65,SSW,212,0.0,0.0,96,0.00,OVC,,0.00,WeatherDisplay:10.37,2013-08-14 07:35:00,
2013-08-14 03:40:00,61.8,60.6,29.65,SSW,212,0.0,0.0,96,0.00,OVC,,0.00,WeatherDisplay:10.37,2013-08-14 07:40:00,
2013-08-14 03:45:00,61.8,60.6,29.65,SSW,212,0.0,0.0,96,0.00,OVC,,0.00,WeatherDisplay:10.37,2013-08-14 07:45:00,
2013-08-14 03:50:00,61.9,60.7,29.66,SSW,212,0.0,0.0,96,0.00,OVC,,0.00,WeatherDisplay:10.37,2013-08-14 07:50:00,
2013-08-14 03:55:00,62.0,60.8,29.66,SSW,212,0.0,0.0,96,0.00,OVC,,0.00,WeatherDisplay:10.37,2013-08-14 07:55:00,
2013-08-14 04:05:00,62.2,61.1,29.66,SSW,210,0.0,2.0,96,0.00,BKN,,0.00,WeatherDisplay:10.37,2013-08-14 08:05:00,
2013-08-14 04:10:00,62.4,61.2,29.66,SW,217,0.0,2.0,96,0.00,BKN,,0.00,WeatherDisplay:10.37,2013-08-14 08:10:00,
2013-08-14 04:15:00,62.5,61.3,29.65,South,184,0.0,0.0,96,0.00,BKN,,0.00,WeatherDisplay:10.37,2013-08-14 08:15:00,
2013-08-14 04:20:00,62.5,61.3,29.66,SE,125,0.0,0.0,96,0.00,BKN,,0.00,WeatherDisplay:10.37,2013-08-14 08:20:00,
2013-08-14 04:25:00,62.6,61.4,29.66,ESE,113,0.0,0.0,96,0.00,BKN,,0.00,WeatherDisplay:10.37,2013-08-14 08:25:00,
2013-08-14 04:30:00,62.6,61.4,29.66,ESE,113,0.0,0.0,96,0.00,BKN,,0.00,WeatherDisplay:10.37,2013-08-14 08:30:00,
2013-08-14 04:35:00,62.5,61.3,29.66,ESE,113,0.0,0.0,96,0.00,BKN,,0.00,WeatherDisplay:10.37,2013-08-14 08:35:00,
2013-08-14 04:40:00,62.3,61.1,29.65,ESE,113,0.0,0.0,96,0.00,BKN,,0.00,WeatherDisplay:10.37,2013-08-14 08:40:00,
2013-08-14 04:45:00,62.0,60.6,29.66,ESE,113,0.0,2.0,95,0.00,BKN,,0.00,WeatherDisplay:10.37,2013-08-14 08:45:00,
2013-08-14 04:50:00,61.7,60.3,29.66,ESE,113,0.0,0.0,95,0.00,BKN,,0.00,WeatherDisplay:10.37,2013-08-14 08:50:00,
2013-08-14 04:55:00,61.4,60.0,29.66,ESE,113,0.0,0.0,95,0.00,BKN,,0.00,WeatherDisplay:10.37,2013-08-14 08:55:00,
2013-08-14 05:00:00,61.1,59.4,29.66,ESE,113,0.0,0.0,94,0.00,BKN,,0.00,WeatherDisplay:10.37,2013-08-14 09:00:00,
2013-08-14 05:05:00,60.8,59.1,29.67,ESE,113,0.0,0.0,94,0.00,OVC,,0.00,WeatherDisplay:10.37,2013-08-14 09:05:00,
2013-08-14 05:10:00,60.5,58.8,29.67,ESE,113,0.0,0.0,94,0.00,OVC,,0.00,WeatherDisplay:10.37,2013-08-14 09:10:00,
2013-08-14 05:15:00,60.3,58.6,29.67,ESE,113,0.0,0.0,94,0.00,OVC,,0.00,WeatherDisplay:10.37,2013-08-14 09:15:00,
2013-08-14 05:20:00,60.0,58.0,29.67,ESE,115,0.0,2.0,93,0.00,OVC,,0.00,WeatherDisplay:10.37,2013-08-14 09:20:00,
2013-08-14 05:25:00,59.8,57.8,29.67,SSE,150,0.0,0.0,93,0.00,OVC,,0.00,WeatherDisplay:10.37,2013-08-14 09:25:00,
2013-08-14 05:30:00,59.6,57.6,29.67,SSE,148,0.0,0.0,93,0.00,OVC,,0.00,WeatherDisplay:10.37,2013-08-14 09:30:00,
2013-08-14 05:40:00,59.3,57.0,29.67,ESE,111,0.0,0.0,92,0.00,OVC,,0.00,WeatherDisplay:10.37,2013-08-14 09:40:00,
2013-08-14 05:45:00,59.1,56.8,29.67,ESE,111,0.0,0.0,92,0.00,OVC,,0.00,WeatherDisplay:10.37,2013-08-14 09:45:00,
2013-08-14 05:50:00,59.0,56.7,29.68,ESE,111,0.0,0.0,92,0.00,OVC,,0.00,WeatherDisplay:10.37,2013-08-14 09:50:00,
2013-08-14 05:55:00,58.8,56.5,29.68,ESE,111,0.0,0.0,92,0.00,OVC,,0.00,WeatherDisplay:10.37,2013-08-14 09:55:00,
2013-08-14 06:00:00,58.7,56.7,29.68,ESE,111,0.0,0.0,93,0.00,OVC,,0.00,WeatherDisplay:10.37,2013-08-14 10:00:00,
2013-08-14 06:05:00,58.5,56.5,29.68,ESE,111,0.0,0.0,93,0.00,FEW,,0.00,WeatherDisplay:10.37,2013-08-14 10:05:00,
2013-08-14 06:10:00,58.3,56.3,29.69,ESE,111,0.0,0.0,93,0.00,FEW,,0.00,WeatherDisplay:10.37,2013-08-14 10:10:00,
2013-08-14 06:15:00,58.2,55.9,29.69,ESE,111,0.0,0.0,92,0.00,FEW,,0.00,WeatherDisplay:10.37,2013-08-14 10:15:00,
2013-08-14 06:20:00,58.0,56.0,29.69,ESE,111,0.0,0.0,93,0.00,FEW,,0.00,WeatherDisplay:10.37,2013-08-14 10:20:00,
2013-08-14 06:25:00,57.9,55.9,29.70,ESE,110,0.0,0.0,93,0.00,FEW,,0.00,WeatherDisplay:10.37,2013-08-14 10:25:00,
2013-08-14 06:30:00,57.7,55.4,29.70,ESE,111,0.0,3.0,92,0.00,FEW,,0.00,WeatherDisplay:10.37,2013-08-14 10:30:00,
2013-08-14 06:35:00,57.7,55.4,29.70,WSW,242,0.0,0.0,92,0.00,FEW,,0.00,WeatherDisplay:10.37,2013-08-14 10:35:00,
2013-08-14 06:40:00,57.6,55.6,29.70,WSW,257,0.0,0.0,93,0.00,FEW,,0.00,WeatherDisplay:10.37,2013-08-14 10:40:00,
2013-08-14 06:45:00,57.6,55.3,29.70,SW,222,0.0,3.0,92,0.00,FEW,,0.00,WeatherDisplay:10.37,2013-08-14 10:45:00,
2013-08-14 06:50:00,57.6,55.3,29.70,SSW,194,0.0,2.0,92,0.00,FEW,,0.00,WeatherDisplay:10.37,2013-08-14 10:50:00,
2013-08-14 06:55:00,57.7,55.4,29.71,SE,145,0.0,0.0,92,0.00,FEW,,0.00,WeatherDisplay:10.37,2013-08-14 10:55:00,
2013-08-14 07:00:00,57.7,55.1,29.71,ESE,119,0.0,1.0,91,0.00,FEW,,0.00,WeatherDisplay:10.37,2013-08-14 11:00:00,
2013-08-14 07:05:00,57.8,55.2,29.70,ESE,104,0.0,1.0,91,0.00,CLR,,0.00,WeatherDisplay:10.37,2013-08-14 11:05:00,
2013-08-14 07:10:00,57.9,55.6,29.71,NNW,338,0.0,2.0,92,0.00,CLR,,0.00,WeatherDisplay:10.37,2013-08-14 11:10:00,
2013-08-14 07:15:00,57.9,55.3,29.71,NW,312,0.0,2.0,91,0.00,CLR,,0.00,WeatherDisplay:10.37,2013-08-14 11:15:00,
2013-08-14 07:20:00,58.0,55.1,29.71,East,90,0.0,2.0,90,0.00,CLR,,0.00,WeatherDisplay:10.37,2013-08-14 11:20:00,
2013-08-14 07:25:00,58.0,54.2,29.71,ENE,71,0.0,1.0,87,0.00,CLR,,0.00,WeatherDisplay:10.37,2013-08-14 11:25:00,
2013-08-14 07:30:00,58.0,54.5,29.71,NW,312,0.0,0.0,88,0.00,CLR,,0.00,WeatherDisplay:10.37,2013-08-14 11:30:00,
2013-08-14 07:35:00,58.2,55.0,29.71,WNW,293,0.0,1.0,89,0.00,CLR,,0.00,WeatherDisplay:10.37,2013-08-14 11:35:00,
2013-08-14 07:40:00,58.3,55.1,29.71,WNW,286,0.0,1.0,89,0.00,CLR,,0.00,WeatherDisplay:10.37,2013-08-14 11:40:00,
2013-08-14 07:50:00,58.6,55.7,29.71,West,266,0.0,2.0,90,0.00,CLR,,0.00,WeatherDisplay:10.37,2013-08-14 11:50:00,
2013-08-14 08:00:00,58.9,55.0,29.71,SW,218,0.0,3.0,87,0.00,CLR,,0.00,WeatherDisplay:10.37,2013-08-14 12:00:00,
2013-08-14 08:05:00,59.1,54.9,29.71,SW,221,0.0,3.0,86,0.00,CLR,,0.00,WeatherDisplay:10.37,2013-08-14 12:05:00,
2013-08-14 08:15:00,59.5,54.3,29.71,SW,231,1.0,3.0,83,0.00,CLR,,0.00,WeatherDisplay:10.37,2013-08-14 12:15:00,
2013-08-14 08:20:00,59.7,53.9,29.71,WSW,252,0.0,3.0,81,0.00,CLR,,0.00,WeatherDisplay:10.37,2013-08-14 12:20:00,
2013-08-14 08:25:00,60.0,55.2,29.71,WSW,253,0.0,2.0,84,0.00,CLR,,0.00,WeatherDisplay:10.37,2013-08-14 12:25:00,
2013-08-14 08:30:00,60.2,55.0,29.71,WNW,284,0.0,3.0,83,0.00,CLR,,0.00,WeatherDisplay:10.37,2013-08-14 12:30:00,
2013-08-14 08:35:00,60.4,54.6,29.71,WSW,243,2.0,5.0,81,0.00,CLR,,0.00,WeatherDisplay:10.37,2013-08-14 12:35:00,
2013-08-14 08:40:00,60.7,54.8,29.70,WSW,252,0.0,3.0,81,0.00,CLR,,0.00,WeatherDisplay:10.37,2013-08-14 12:40:00,
2013-08-14 08:45:00,60.9,54.3,29.70,WSW,251,0.0,5.0,79,0.00,CLR,,0.00,WeatherDisplay:10.37,2013-08-14 12:45:00,
2013-08-14 08:50:00,61.1,55.2,29.70,SW,219,0.0,2.0,81,0.00,CLR,,0.00,WeatherDisplay:10.37,2013-08-14 12:50:00,
2013-08-14 08:55:00,61.3,54.8,29.70,SSW,200,2.0,4.0,79,0.00,CLR,,0.00,WeatherDisplay:10.37,2013-08-14 12:55:00,
2013-08-14 09:00:00,61.6,54.6,29.70,WNW,288,1.0,3.0,78,0.00,CLR,,0.00,WeatherDisplay:10.37,2013-08-14 13:00:00,
2013-08-14 09:05:00,62.0,53.6,29.70,WNW,283,1.0,6.0,74,0.00,CLR,,0.00,WeatherDisplay:10.37,2013-08-14 13:05:00,
2013-08-14 09:10:00,62.5,53.8,29.70,WNW,294,1.0,3.0,73,0.00,CLR,,0.00,WeatherDisplay:10.37,2013-08-14 13:10:00,
2013-08-14 09:15:00,63.0,54.2,29.70,NW,305,1.0,5.0,73,0.00,CLR,,0.00,WeatherDisplay:10.37,2013-08-14 13:15:00,
2013-08-14 09:20:00,63.5,54.7,29.69,West,273,2.0,6.0,73,0.00,CLR,,0.00,WeatherDisplay:10.37,2013-08-14 13:20:00,
2013-08-14 09:25:00,63.3,53.7,29.69,West,270,1.0,6.0,71,0.00,CLR,,0.00,WeatherDisplay:10.37,2013-08-14 13:25:00,
2013-08-14 09:30:00,63.1,54.7,29.70,West,273,2.0,4.0,74,0.00,CLR,,0.00,WeatherDisplay:10.37,2013-08-14 13:30:00,
2013-08-14 09:35:00,63.3,54.9,29.69,West,275,2.0,5.0,74,0.00,CLR,,0.00,WeatherDisplay:10.37,2013-08-14 13:35:00,
2013-08-14 09:40:00,63.4,53.8,29.69,West,259,2.0,5.0,71,0.00,CLR,,0.00,WeatherDisplay:10.37,2013-08-14 13:40:00,
2013-08-14 09:45:00,63.4,55.0,29.70,West,262,1.0,5.0,74,0.00,CLR,,0.00,WeatherDisplay:10.37,2013-08-14 13:45:00,
2013-08-14 09:50:00,63.5,53.5,29.69,West,259,3.0,8.0,70,0.00,CLR,,0.00,WeatherDisplay:10.37,2013-08-14 13:50:00,
2013-08-14 09:55:00,63.6,54.8,29.69,West,273,1.0,8.0,73,0.00,CLR,,0.00,WeatherDisplay:10.37,2013-08-14 13:55:00,
2013-08-14 10:00:00,63.8,55.0,29.69,West,264,1.0,6.0,73,0.00,CLR,,0.00,WeatherDisplay:10.37,2013-08-14 14:00:00,
2013-08-14 10:10:00,64.0,54.4,29.70,SW,235,1.0,5.0,71,0.00,CLR,,0.00,WeatherDisplay:10.37,2013-08-14 14:10:00,
2013-08-14 10:15:00,64.2,55.0,29.70,SW,221,2.0,8.0,72,0.00,CLR,,0.00,WeatherDisplay:10.37,2013-08-14 14:15:00,
2013-08-14 10:20:00,64.2,54.2,29.70,WSW,251,1.0,8.0,70,0.00,CLR,,0.00,WeatherDisplay:10.37,2013-08-14 14:20:00,
2013-08-14 10:25:00,64.7,54.7,29.70,West,268,0.0,7.0,70,0.00,CLR,,0.00,WeatherDisplay:10.37,2013-08-14 14:25:00,
2013-08-14 10:30:00,65.0,54.6,29.70,WNW,283,1.0,5.0,69,0.00,CLR,,0.00,WeatherDisplay:10.37,2013-08-14 14:30:00,
2013-08-14 10:35:00,65.2,53.6,29.70,WNW,282,1.0,5.0,66,0.00,FEW,,0.00,WeatherDisplay:10.37,2013-08-14 14:35:00,
2013-08-14 10:40:00,65.2,54.8,29.70,West,266,1.0,5.0,69,0.00,FEW,,0.00,WeatherDisplay:10.37,2013-08-14 14:40:00,
2013-08-14 10:45:00,65.2,54.0,29.70,SW,236,1.0,4.0,67,0.00,FEW,,0.00,WeatherDisplay:10.37,2013-08-14 14:45:00,
2013-08-14 10:50:00,65.4,55.7,29.70,SW,236,1.0,6.0,71,0.00,FEW,,0.00,WeatherDisplay:10.37,2013-08-14 14:50:00,
2013-08-14 10:55:00,65.7,54.8,29.70,SSW,204,2.0,5.0,68,0.00,FEW,,0.00,WeatherDisplay:10.37,2013-08-14 14:55:00,
2013-08-14 11:00:00,65.9,55.5,29.70,SW,218,2.0,9.0,69,0.00,FEW,,0.00,WeatherDisplay:10.37,2013-08-14 15:00:00,
2013-08-14 11:05:00,66.0,55.5,29.71,WSW,238,2.0,5.0,69,0.00,FEW,,0.00,WeatherDisplay:10.37,2013-08-14 15:05:00,
2013-08-14 11:15:00,66.4,54.3,29.71,West,271,2.0,5.0,65,0.00,FEW,,0.00,WeatherDisplay:10.37,2013-08-14 15:15:00,
2013-08-14 11:20:00,66.5,56.0,29.71,West,273,1.0,4.0,69,0.00,FEW,,0.00,WeatherDisplay:10.37,2013-08-14 15:20:00,
2013-08-14 11:25:00,66.8,55.1,29.70,WNW,285,2.0,5.0,66,0.00,FEW,,0.00,WeatherDisplay:10.37,2013-08-14 15:25:00,
2013-08-14 11:30:00,67.2,55.5,29.71,WNW,284,1.0,6.0,66,0.00,FEW,,0.00,WeatherDisplay:10.37,2013-08-14 15:30:00,
2013-08-14 11:35:00,67.2,55.1,29.71,WNW,288,2.0,4.0,65,0.00,FEW,,0.00,WeatherDisplay:10.37,2013-08-14 15:35:00,
2013-08-14 11:40:00,67.1,55.8,29.71,West,259,1.0,5.0,67,0.00,FEW,,0.00,WeatherDisplay:10.37,2013-08-14 15:40:00,
2013-08-14 11:45:00,67.1,56.6,29.70,SW,235,3.0,5.0,69,0.00,FEW,,0.00,WeatherDisplay:10.37,2013-08-14 15:45:00,
2013-08-14 11:50:00,67.3,56.0,29.70,SSW,207,1.0,3.0,67,0.00,FEW,,0.00,WeatherDisplay:10.37,2013-08-14 15:50:00,
2013-08-14 11:55:00,67.5,56.6,29.70,WSW,238,3.0,5.0,68,0.00,FEW,,0.00,WeatherDisplay:10.37,2013-08-14 15:55:00,
2013-08-14 12:00:00,67.7,56.3,29.71,West,265,1.0,5.0,67,0.00,FEW,,0.00,WeatherDisplay:10.37,2013-08-14 16:00:00,
2013-08-14 12:05:00,67.9,55.7,29.71,WSW,244,2.0,5.0,65,0.00,BKN,,0.00,WeatherDisplay:10.37,2013-08-14 16:05:00,
2013-08-14 12:10:00,67.9,55.3,29.71,WSW,244,1.0,6.0,64,0.00,BKN,,0.00,WeatherDisplay:10.37,2013-08-14 16:10:00,
2013-08-14 12:15:00,67.7,54.6,29.71,SW,236,2.0,5.0,63,0.00,BKN,,0.00,WeatherDisplay:10.37,2013-08-14 16:15:00,
2013-08-14 12:20:00,68.0,54.9,29.71,WSW,250,2.0,9.0,63,0.00,BKN,,0.00,WeatherDisplay:10.37,2013-08-14 16:20:00,
2013-08-14 12:25:00,68.6,56.3,29.71,WSW,257,2.0,5.0,65,0.00,BKN,,0.00,WeatherDisplay:10.37,2013-08-14 16:25:00,
2013-08-14 12:35:00,68.8,55.3,29.71,West,265,1.0,6.0,62,0.00,BKN,,0.00,WeatherDisplay:10.37,2013-08-14 16:35:00,
2013-08-14 12:45:00,68.7,56.1,29.71,WSW,256,1.0,5.0,64,0.00,BKN,,0.00,WeatherDisplay:10.37,2013-08-14 16:45:00,
2013-08-14 12:55:00,69.0,55.0,29.70,WSW,246,1.0,4.0,61,0.00,BKN,,0.00,WeatherDisplay:10.37,2013-08-14 16:55:00,
2013-08-14 13:05:00,68.9,54.4,29.70,WSW,244,2.0,5.0,60,0.00,BKN,,0.00,WeatherDisplay:10.37,2013-08-14 17:05:00,
2013-08-14 13:15:00,69.2,54.7,29.71,SW,230,3.0,8.0,60,0.00,BKN,,0.00,WeatherDisplay:10.37,2013-08-14 17:15:00,
2013-08-14 13:20:00,69.5,55.9,29.71,WNW,288,2.0,4.0,62,0.00,BKN,,0.00,WeatherDisplay:10.37,2013-08-14 17:20:00,
2013-08-14 13:25:00,69.8,54.4,29.71,West,277,3.0,8.0,58,0.00,BKN,,0.00,WeatherDisplay:10.37,2013-08-14 17:25:00,
2013-08-14 13:30:00,70.1,55.6,29.71,West,263,1.0,4.0,60,0.00,BKN,,0.00,WeatherDisplay:10.37,2013-08-14 17:30:00,
2013-08-14 13:35:00,70.1,55.1,29.71,WSW,241,1.0,12.0,59,0.00,BKN,,0.00,WeatherDisplay:10.37,2013-08-14 17:35:00,
2013-08-14 13:45:00,70.6,54.6,29.71,West,280,3.0,9.0,57,0.00,BKN,,0.00,WeatherDisplay:10.37,2013-08-14 17:45:00,
2013-08-14 13:50:00,70.8,54.8,29.71,WNW,291,3.0,10.0,57,0.00,BKN,,0.00,WeatherDisplay:10.37,2013-08-14 17:50:00,
2013-08-14 14:00:00,70.9,56.3,29.72,West,261,2.0,5.0,60,0.00,BKN,,0.00,WeatherDisplay:10.37,2013-08-14 18:00:00,
2013-08-14 14:10:00,71.9,55.8,29.71,West,277,3.0,7.0,57,0.00,BKN,,0.00,WeatherDisplay:10.37,2013-08-14 18:10:00,
2013-08-14 14:20:00,72.4,57.7,29.71,WSW,240,1.0,9.0,60,0.00,SCT,,0.00,WeatherDisplay:10.37,2013-08-14 18:20:00,
2013-08-14 14:35:00,72.8,56.7,29.71,West,265,2.0,7.0,57,0.00,SCT,,0.00,WeatherDisplay:10.37,2013-08-14 18:35:00,
2013-08-14 14:40:00,73.0,55.4,29.71,WNW,300,2.0,7.0,54,0.00,SCT,,0.00,WeatherDisplay:10.37,2013-08-14 18:40:00,
2013-08-14 14:45:00,72.9,55.8,29.71,WNW,299,2.0,7.0,55,0.00,SCT,,0.00,WeatherDisplay:10.37,2013-08-14 18:45:00,
2013-08-14 14:50:00,73.0,55.9,29.71,WNW,291,2.0,6.0,55,0.00,SCT,,0.00,WeatherDisplay:10.37,2013-08-14 18:50:00,
2013-08-14 14:55:00,73.0,54.9,29.71,West,279,2.0,5.0,53,0.00,SCT,,0.00,WeatherDisplay:10.37,2013-08-14 18:55:00,
2013-08-14 15:05:00,72.4,55.3,29.71,WNW,282,1.0,7.0,55,0.00,SCT,,0.00,WeatherDisplay:10.37,2013-08-14 19:05:00,
2013-08-14 15:15:00,72.4,58.2,29.71,SW,221,3.0,6.0,61,0.00,SCT,,0.00,WeatherDisplay:10.37,2013-08-14 19:15:00,
2013-08-14 15:20:00,72.2,55.6,29.71,West,273,2.0,5.0,56,0.00,SCT,,0.00,WeatherDisplay:10.37,2013-08-14 19:20:00,
2013-08-14 15:35:00,72.0,55.0,29.71,West,273,2.0,5.0,55,0.00,SCT,,0.00,WeatherDisplay:10.37,2013-08-14 19:35:00,
2013-08-14 15:40:00,72.1,57.0,29.72,West,280,1.0,7.0,59,0.00,SCT,,0.00,WeatherDisplay:10.37,2013-08-14 19:40:00,
2013-08-14 15:45:00,72.1,56.0,29.72,West,274,2.0,8.0,57,0.00,SCT,,0.00,WeatherDisplay:10.37,2013-08-14 19:45:00,
2013-08-14 15:50:00,72.2,54.6,29.73,WSW,255,2.0,7.0,54,0.00,SCT,,0.00,WeatherDisplay:10.37,2013-08-14 19:50:00,
2013-08-14 15:55:00,72.2,56.2,29.73,WSW,251,1.0,4.0,57,0.00,SCT,,0.00,WeatherDisplay:10.37,2013-08-14 19:55:00,
2013-08-14 16:00:00,72.1,56.0,29.73,West,275,3.0,7.0,57,0.00,SCT,,0.00,WeatherDisplay:10.37,2013-08-14 20:00:00,
2013-08-14 16:05:00,72.1,56.5,29.73,WNW,288,1.0,6.0,58,0.00,SCT,,0.00,WeatherDisplay:10.37,2013-08-14 20:05:00,
2013-08-14 16:15:00,72.2,57.1,29.73,WNW,283,1.0,4.0,59,0.00,SCT,,0.00,WeatherDisplay:10.37,2013-08-14 20:15:00,
2013-08-14 16:25:00,71.8,55.3,29.73,WSW,254,5.0,7.0,56,0.00,SCT,,0.00,WeatherDisplay:10.37,2013-08-14 20:25:00,
2013-08-14 16:35:00,72.2,57.5,29.73,WNW,290,0.0,3.0,60,0.00,SCT,,0.00,WeatherDisplay:10.37,2013-08-14 20:35:00,
2013-08-14 16:40:00,72.3,57.2,29.74,WNW,289,1.0,4.0,59,0.00,SCT,,0.00,WeatherDisplay:10.37,2013-08-14 20:40:00,
2013-08-14 16:50:00,72.2,56.2,29.74,WNW,293,1.0,4.0,57,0.00,SCT,,0.00,WeatherDisplay:10.37,2013-08-14 20:50:00,
2013-08-14 16:55:00,72.1,55.5,29.74,West,279,1.0,5.0,56,0.00,SCT,,0.00,WeatherDisplay:10.37,2013-08-14 20:55:00,
2013-08-14 17:00:00,71.9,54.3,29.74,West,261,1.0,4.0,54,0.00,SCT,,0.00,WeatherDisplay:10.37,2013-08-14 21:00:00,
2013-08-14 17:05:00,71.8,55.3,29.75,WSW,253,1.0,8.0,56,0.00,SCT,,0.00,WeatherDisplay:10.37,2013-08-14 21:05:00,
2013-08-14 17:10:00,71.7,55.2,29.75,West,271,1.0,6.0,56,0.00,SCT,,0.00,WeatherDisplay:10.37,2013-08-14 21:10:00,
2013-08-14 17:15:00,71.7,57.5,29.75,WNW,284,0.0,3.0,61,0.00,SCT,,0.00,WeatherDisplay:10.37,2013-08-14 21:15:00,
2013-08-14 17:20:00,71.5,56.4,29.75,WSW,256,3.0,5.0,59,0.00,SCT,,0.00,WeatherDisplay:10.37,2013-08-14 21:20:00,
2013-08-14 17:25:00,71.2,56.6,29.75,West,267,2.0,8.0,60,0.00,SCT,,0.00,WeatherDisplay:10.37,2013-08-14 21:25:00,
2013-08-14 17:30:00,70.8,55.8,29.75,West,259,2.0,6.0,59,0.00,SCT,,0.00,WeatherDisplay:10.37,2013-08-14 21:30:00,
2013-08-14 17:35:00,70.5,56.8,29.75,WSW,237,2.0,5.0,62,0.00,SCT,,0.00,WeatherDisplay:10.37,2013-08-14 21:35:00,
2013-08-14 17:40:00,70.1,56.5,29.76,WSW,253,1.0,4.0,62,0.00,SCT,,0.00,WeatherDisplay:10.37,2013-08-14 21:40:00,
2013-08-14 17:45:00,69.8,56.2,29.76,West,276,1.0,3.0,62,0.00,SCT,,0.00,WeatherDisplay:10.37,2013-08-14 21:45:00,
2013-08-14 17:50:00,69.7,56.5,29.76,NNW,345,0.0,4.0,63,0.00,SCT,,0.00,WeatherDisplay:10.37,2013-08-14 21:50:00,
2013-08-14 17:55:00,69.6,56.4,29.76,WNW,295,1.0,3.0,63,0.00,SCT,,0.00,WeatherDisplay:10.37,2013-08-14 21:55:00,
2013-08-14 18:00:00,69.6,55.6,29.76,WNW,288,2.0,5.0,61,0.00,SCT,,0.00,WeatherDisplay:10.37,2013-08-14 22:00:00,
2013-08-14 18:10:00,69.5,56.8,29.76,West,268,2.0,6.0,64,0.00,SCT,,0.00,WeatherDisplay:10.37,2013-08-14 22:10:00,
2013-08-14 18:15:00,69.3,55.7,29.77,WNW,290,2.0,5.0,62,0.00,SCT,,0.00,WeatherDisplay:10.37,2013-08-14 22:15:00,
2013-08-14 18:20:00,69.2,55.6,29.77,NW,305,1.0,4.0,62,0.00,SCT,,0.00,WeatherDisplay:10.37,2013-08-14 22:20:00,
2013-08-14 18:25:00,69.0,55.4,29.77,WNW,294,2.0,4.0,62,0.00,SCT,,0.00,WeatherDisplay:10.37,2013-08-14 22:25:00,
2013-08-14 18:30:00,68.8,56.1,29.77,West,265,1.0,2.0,64,0.00,SCT,,0.00,WeatherDisplay:10.37,2013-08-14 22:30:00,
2013-08-14 18:35:00,68.6,55.9,29.78,NW,319,2.0,6.0,64,0.00,SCT,,0.00,WeatherDisplay:10.37,2013-08-14 22:35:00,
2013-08-14 18:40:00,68.3,56.5,29.78,West,270,1.0,3.0,66,0.00,SCT,,0.00,WeatherDisplay:10.37,2013-08-14 22:40:00,
2013-08-14 18:45:00,68.1,56.3,29.79,West,261,0.0,1.0,66,0.00,SCT,,0.00,WeatherDisplay:10.37,2013-08-14 22:45:00,
2013-08-14 18:50:00,67.9,56.2,29.79,West,269,0.0,2.0,66,0.00,SCT,,0.00,WeatherDisplay:10.37,2013-08-14 22:50:00,
2013-08-14 18:55:00,67.8,56.0,29.80,SSW,212,1.0,5.0,66,0.00,SCT,,0.00,WeatherDisplay:10.37,2013-08-14 22:55:00,
2013-08-14 19:00:00,67.6,54.9,29.80,West,280,1.0,5.0,64,0.00,SCT,,0.00,WeatherDisplay:10.37,2013-08-14 23:00:00,
2013-08-14 19:10:00,67.2,55.4,29.81,South,190,0.0,2.0,66,0.00,SCT,,0.00,WeatherDisplay:10.37,2013-08-14 23:10:00,
2013-08-14 19:15:00,67.0,55.3,29.81,SW,226,0.0,3.0,66,0.00,SCT,,0.00,WeatherDisplay:10.37,2013-08-14 23:15:00,
2013-08-14 19:20:00,66.8,55.5,29.81,West,261,1.0,3.0,67,0.00,SCT,,0.00,WeatherDisplay:10.37,2013-08-14 23:20:00,
2013-08-14 19:25:00,66.6,55.7,29.81,West,259,0.0,2.0,68,0.00,SCT,,0.00,WeatherDisplay:10.37,2013-08-14 23:25:00,
2013-08-14 19:30:00,66.4,55.1,29.82,WSW,249,0.0,0.0,67,0.00,SCT,,0.00,WeatherDisplay:10.37,2013-08-14 23:30:00,
2013-08-14 19:35:00,66.2,55.3,29.82,WSW,254,0.0,2.0,68,0.00,SCT,,0.00,WeatherDisplay:10.37,2013-08-14 23:35:00,
2013-08-14 19:40:00,65.9,55.5,29.82,NW,314,0.0,0.0,69,0.00,SCT,,0.00,WeatherDisplay:10.37,2013-08-14 23:40:00,
2013-08-14 19:45:00,65.7,56.4,29.83,NNE,28,0.0,0.0,72,0.00,SCT,,0.00,WeatherDisplay:10.37,2013-08-14 23:45:00,
2013-08-14 19:50:00,65.4,56.1,29.83,NNE,28,0.0,0.0,72,0.00,SCT,,0.00,WeatherDisplay:10.37,2013-08-14 23:50:00,
2013-08-14 19:55:00,65.0,55.0,29.83,NNE,12,0.0,5.0,70,0.00,SCT,,0.00,WeatherDisplay:10.37,2013-08-14 23:55:00,
2013-08-14 20:00:00,64.7,55.5,29.83,WSW,250,0.0,2.0,72,0.00,SCT,,0.00,WeatherDisplay:10.37,2013-08-15 00:00:00,
2013-08-14 20:05:00,64.4,54.8,29.83,WSW,243,0.0,2.0,71,0.00,FEW,,0.00,WeatherDisplay:10.37,2013-08-15 00:05:00,
2013-08-14 20:10:00,64.1,54.1,29.84,WSW,244,0.0,0.0,70,0.00,FEW,,0.00,WeatherDisplay:10.37,2013-08-15 00:10:00,
2013-08-14 20:15:00,64.0,56.3,29.84,WSW,244,0.0,0.0,76,0.00,FEW,,0.00,WeatherDisplay:10.37,2013-08-15 00:15:00,
2013-08-14 20:20:00,63.8,56.8,29.85,WSW,244,0.0,0.0,78,0.00,FEW,,0.00,WeatherDisplay:10.37,2013-08-15 00:20:00,
2013-08-14 20:25:00,63.5,56.1,29.85,SW,224,0.0,0.0,77,0.00,FEW,,0.00,WeatherDisplay:10.37,2013-08-15 00:25:00,
2013-08-14 20:30:00,63.1,55.4,29.85,SSW,208,0.0,0.0,76,0.00,FEW,,0.00,WeatherDisplay:10.37,2013-08-15 00:30:00,
2013-08-14 20:35:00,62.8,55.2,29.85,SSW,208,0.0,0.0,76,0.00,FEW,,0.00,WeatherDisplay:10.37,2013-08-15 00:35:00,
2013-08-14 20:40:00,62.6,54.9,29.86,SSW,208,0.0,0.0,76,0.00,FEW,,0.00,WeatherDisplay:10.37,2013-08-15 00:40:00,
2013-08-14 20:45:00,62.4,55.1,29.86,SSW,208,0.0,0.0,77,0.00,FEW,,0.00,WeatherDisplay:10.37,2013-08-15 00:45:00,
2013-08-14 20:50:00,62.2,54.5,29.86,SSW,208,0.0,0.0,76,0.00,FEW,,0.00,WeatherDisplay:10.37,2013-08-15 00:50:00,
2013-08-14 20:55:00,61.9,54.6,29.86,SSW,208,0.0,0.0,77,0.00,FEW,,0.00,WeatherDisplay:10.37,2013-08-15 00:55:00,
2013-08-14 21:00:00,61.7,54.4,29.87,SSW,208,0.0,0.0,77,0.00,FEW,,0.00,WeatherDisplay:10.37,2013-08-15 01:00:00,
2013-08-14 21:05:00,61.4,55.6,29.88,SSW,208,0.0,0.0,81,0.00,CLR,,0.00,WeatherDisplay:10.37,2013-08-15 01:05:00,
2013-08-14 21:15:00,61.0,54.1,29.88,SSW,208,0.0,0.0,78,0.00,CLR,,0.00,WeatherDisplay:10.37,2013-08-15 01:15:00,
2013-08-14 21:25:00,60.7,54.5,29.89,SSW,208,0.0,0.0,80,0.00,CLR,,0.00,WeatherDisplay:10.37,2013-08-15 01:25:00,
2013-08-14 21:30:00,60.5,54.3,29.89,SSW,208,0.0,0.0,80,0.00,CLR,,0.00,WeatherDisplay:10.37,2013-08-15 01:30:00,
2013-08-14 21:35:00,60.3,54.1,29.89,SSW,208,0.0,0.0,80,0.00,CLR,,0.00,WeatherDisplay:10.37,2013-08-15 01:35:00,
2013-08-14 21:40:00,60.0,54.2,29.90,SSW,208,0.0,0.0,81,0.00,CLR,,0.00,WeatherDisplay:10.37,2013-08-15 01:40:00,
2013-08-14 21:45:00,59.8,54.0,29.90,SSW,208,0.0,0.0,81,0.00,CLR,,0.00,WeatherDisplay:10.37,2013-08-15 01:45:00,
2013-08-14 21:50:00,59.6,54.4,29.90,SSW,208,0.0,0.0,83,0.00,CLR,,0.00,WeatherDisplay:10.37,2013-08-15 01:50:00,
2013-08-14 21:55:00,59.4,54.2,29.90,SSW,208,0.0,0.0,83,0.00,CLR,,0.00,WeatherDisplay:10.37,2013-08-15 01:55:00,
2013-08-14 22:00:00,59.2,54.0,29.90,SSW,208,0.0,0.0,83,0.00,CLR,,0.00,WeatherDisplay:10.37,2013-08-15 02:00:00,
2013-08-14 22:05:00,59.1,53.9,29.90,SSW,208,0.0,0.0,83,0.00,CLR,,0.00,WeatherDisplay:10.37,2013-08-15 02:05:00,
2013-08-14 22:10:00,58.9,54.4,29.90,SSW,208,0.0,0.0,85,0.00,CLR,,0.00,WeatherDisplay:10.37,2013-08-15 02:10:00,
2013-08-14 22:15:00,58.7,54.2,29.91,SSW,208,0.0,0.0,85,0.00,CLR,,0.00,WeatherDisplay:10.37,2013-08-15 02:15:00,
2013-08-14 22:20:00,58.6,53.1,29.91,SSW,208,0.0,0.0,82,0.00,CLR,,0.00,WeatherDisplay:10.37,2013-08-15 02:20:00,
2013-08-14 22:25:00,58.4,53.6,29.91,SSW,208,0.0,0.0,84,0.00,CLR,,0.00,WeatherDisplay:10.37,2013-08-15 02:25:00,
2013-08-14 22:30:00,58.3,53.8,29.91,SSW,208,0.0,0.0,85,0.00,CLR,,0.00,WeatherDisplay:10.37,2013-08-15 02:30:00,
2013-08-14 22:35:00,58.0,53.2,29.92,SSW,208,0.0,0.0,84,0.00,CLR,,0.00,WeatherDisplay:10.37,2013-08-15 02:35:00,
2013-08-14 22:40:00,57.8,53.3,29.92,SSW,208,0.0,0.0,85,0.00,CLR,,0.00,WeatherDisplay:10.37,2013-08-15 02:40:00,
2013-08-14 22:45:00,57.6,52.4,29.92,SSW,208,0.0,0.0,83,0.00,CLR,,0.00,WeatherDisplay:10.37,2013-08-15 02:45:00,
2013-08-14 22:55:00,57.3,53.1,29.92,SSW,208,0.0,0.0,86,0.00,CLR,,0.00,WeatherDisplay:10.37,2013-08-15 02:55:00,
2013-08-14 23:00:00,57.1,53.0,29.92,SSW,208,0.0,0.0,86,0.00,CLR,,0.00,WeatherDisplay:10.37,2013-08-15 03:00:00,
2013-08-14 23:05:00,56.9,52.4,29.92,SSW,208,0.0,0.0,85,0.00,CLR,,0.00,WeatherDisplay:10.37,2013-08-15 03:05:00,
2013-08-14 23:10:00,56.8,53.0,29.92,SSW,208,0.0,0.0,87,0.00,CLR,,0.00,WeatherDisplay:10.37,2013-08-15 03:10:00,
2013-08-14 23:15:00,56.6,52.8,29.92,SSW,208,0.0,0.0,87,0.00,CLR,,0.00,WeatherDisplay:10.37,2013-08-15 03:15:00,
2013-08-14 23:20:00,56.4,52.3,29.92,SSW,208,0.0,0.0,86,0.00,CLR,,0.00,WeatherDisplay:10.37,2013-08-15 03:20:00,
2013-08-14 23:25:00,56.3,52.2,29.92,SSW,208,0.0,0.0,86,0.00,CLR,,0.00,WeatherDisplay:10.37,2013-08-15 03:25:00,
2013-08-14 23:30:00,56.2,52.4,29.92,South,179,0.0,0.0,87,0.00,CLR,,0.00,WeatherDisplay:10.37,2013-08-15 03:30:00,
2013-08-14 23:35:00,56.1,52.0,29.93,SSE,148,0.0,0.0,86,0.00,CLR,,0.00,WeatherDisplay:10.37,2013-08-15 03:35:00,
2013-08-14 23:40:00,56.0,51.6,29.93,SE,146,0.0,0.0,85,0.00,CLR,,0.00,WeatherDisplay:10.37,2013-08-15 03:40:00,
2013-08-14 23:45:00,55.9,51.8,29.93,SE,146,0.0,0.0,86,0.00,CLR,,0.00,WeatherDisplay:10.37,2013-08-15 03:45:00,
2013-08-14 23:50:00,55.8,51.7,29.93,SE,146,0.0,0.0,86,0.00,CLR,,0.00,WeatherDisplay:10.37,2013-08-15 03:50:00,
2013-08-14 23:55:00,55.6,51.5,29.94,SE,146,0.0,0.0,86,0.00,CLR,,0.00,WeatherDisplay:10.37,2013-08-15 03:55:00,